Year,Month,Day,Hour,Minute,Value (Times are PST for temperature in C)
2013,07,03,00,03,13.90
2013,07,03,00,04,13.90
2013,07,03,00,05,14.00
2013,07,03,00,06,13.90
2013,07,03,00,07,14.00
2013,07,03,00,08,14.00
2013,07,03,00,09,13.90
2013,07,03,00,10,13.90
2013,07,03,00,11,13.90
2013,07,03,00,12,13.90
2013,07,03,00,13,13.90
2013,07,03,00,14,13.90
2013,07,03,00,15,13.90
2013,07,03,00,16,13.80
2013,07,03,00,17,13.80
2013,07,03,00,19,13.80
2013,07,03,00,20,13.80
2013,07,03,00,21,13.80
2013,07,03,00,22,13.70
2013,07,03,00,23,13.70
2013,07,03,00,24,13.70
2013,07,03,00,25,13.70
2013,07,03,00,26,13.70
2013,07,03,00,28,13.70
2013,07,03,00,29,13.70
2013,07,03,00,30,13.60
2013,07,03,00,31,13.60
2013,07,03,00,32,13.60
2013,07,03,00,33,13.60
2013,07,03,00,34,13.60
2013,07,03,00,35,13.60
2013,07,03,00,36,13.60
2013,07,03,00,37,13.60
2013,07,03,00,38,13.60
2013,07,03,00,39,13.60
2013,07,03,00,40,13.50
2013,07,03,00,41,13.50
2013,07,03,00,42,13.50
2013,07,03,00,43,13.50
2013,07,03,00,44,13.50
2013,07,03,00,45,13.40
2013,07,03,00,46,13.40
2013,07,03,00,47,13.40
2013,07,03,00,48,13.40
2013,07,03,00,49,13.40
2013,07,03,00,51,13.40
2013,07,03,00,52,13.30
2013,07,03,00,53,13.30
2013,07,03,00,54,13.30
2013,07,03,00,56,13.30
2013,07,03,00,57,13.30
2013,07,03,00,58,13.30
2013,07,03,00,59,13.30
2013,07,03,01,01,13.30
2013,07,03,01,02,13.30
2013,07,03,01,03,13.30
2013,07,03,01,04,13.30
2013,07,03,01,07,13.20
2013,07,03,01,08,13.20
2013,07,03,01,09,13.20
2013,07,03,01,10,13.20
2013,07,03,01,11,13.20
2013,07,03,01,12,13.20
2013,07,03,01,13,13.20
2013,07,03,01,14,13.20
2013,07,03,01,15,13.20
2013,07,03,01,16,13.20
2013,07,03,01,17,13.20
2013,07,03,01,18,13.20
2013,07,03,01,19,13.30
2013,07,03,01,20,13.30
2013,07,03,01,21,13.20
2013,07,03,01,22,13.30
2013,07,03,01,23,13.30
2013,07,03,01,24,13.30
2013,07,03,01,25,13.30
2013,07,03,01,26,13.30
2013,07,03,01,27,13.30
2013,07,03,01,29,13.30
2013,07,03,01,30,13.30
2013,07,03,01,31,13.20
2013,07,03,01,32,13.20
2013,07,03,01,33,13.20
2013,07,03,01,34,13.20
2013,07,03,01,35,13.20
2013,07,03,01,36,13.20
2013,07,03,01,37,13.20
2013,07,03,01,38,13.20
2013,07,03,01,39,13.20
2013,07,03,01,40,13.20
2013,07,03,01,41,13.20
2013,07,03,01,42,13.10
2013,07,03,01,43,13.10
2013,07,03,01,45,13.10
2013,07,03,01,46,13.10
2013,07,03,01,47,13.10
2013,07,03,01,48,13.10
2013,07,03,01,49,13.10
2013,07,03,01,50,13.00
2013,07,03,01,51,13.00
2013,07,03,01,52,13.00
2013,07,03,01,53,13.00
2013,07,03,01,54,13.00
2013,07,03,01,55,13.00
2013,07,03,01,56,13.00
2013,07,03,01,57,13.00
2013,07,03,01,58,12.90
2013,07,03,01,59,12.90
2013,07,03,02,00,12.90
2013,07,03,02,01,12.90
2013,07,03,02,02,12.90
2013,07,03,02,03,12.90
2013,07,03,02,04,13.00
2013,07,03,02,05,12.90
2013,07,03,02,06,12.90
2013,07,03,02,07,12.90
2013,07,03,02,08,12.90
2013,07,03,02,09,12.90
2013,07,03,02,10,12.90
2013,07,03,02,11,12.90
2013,07,03,02,12,12.90
2013,07,03,02,14,12.90
2013,07,03,02,15,12.80
2013,07,03,02,16,12.80
2013,07,03,02,17,12.80
2013,07,03,02,18,12.80
2013,07,03,02,19,12.80
2013,07,03,02,20,12.80
2013,07,03,02,21,12.70
2013,07,03,02,22,12.70
2013,07,03,02,23,12.70
2013,07,03,02,25,12.70
2013,07,03,02,26,12.70
2013,07,03,02,27,12.70
2013,07,03,02,28,12.70
2013,07,03,02,29,12.60
2013,07,03,02,31,12.70
2013,07,03,02,32,12.60
2013,07,03,02,33,12.60
2013,07,03,02,34,12.60
2013,07,03,02,35,12.60
2013,07,03,02,36,12.60
2013,07,03,02,37,12.60
2013,07,03,02,38,12.60
2013,07,03,02,39,12.60
2013,07,03,02,41,12.60
2013,07,03,02,42,12.60
2013,07,03,02,43,12.60
2013,07,03,02,44,12.60
2013,07,03,02,46,12.60
2013,07,03,02,47,12.60
2013,07,03,02,48,12.60
2013,07,03,02,49,12.60
2013,07,03,02,51,12.60
2013,07,03,02,52,12.60
2013,07,03,02,53,12.60
2013,07,03,02,54,12.60
2013,07,03,02,55,12.60
2013,07,03,02,57,12.70
2013,07,03,02,58,12.70
2013,07,03,02,59,12.70
2013,07,03,03,00,12.70
2013,07,03,03,01,12.70
2013,07,03,03,02,12.70
2013,07,03,03,03,12.60
2013,07,03,03,04,12.60
2013,07,03,03,06,12.60
2013,07,03,03,07,12.60
2013,07,03,03,08,12.60
2013,07,03,03,09,12.60
2013,07,03,03,10,12.60
2013,07,03,03,11,12.60
2013,07,03,03,12,12.60
2013,07,03,03,13,12.50
2013,07,03,03,14,12.60
2013,07,03,03,16,12.50
2013,07,03,03,17,12.60
2013,07,03,03,18,12.60
2013,07,03,03,19,12.60
2013,07,03,03,21,12.60
2013,07,03,03,22,12.60
2013,07,03,03,23,12.60
2013,07,03,03,24,12.60
2013,07,03,03,26,12.60
2013,07,03,03,27,12.60
2013,07,03,03,28,12.60
2013,07,03,03,29,12.60
2013,07,03,03,30,12.60
2013,07,03,03,32,12.60
2013,07,03,03,33,12.60
2013,07,03,03,34,12.60
2013,07,03,03,35,12.60
2013,07,03,03,37,12.60
2013,07,03,03,38,12.70
2013,07,03,03,39,12.70
2013,07,03,03,40,12.70
2013,07,03,03,41,12.70
2013,07,03,03,42,12.70
2013,07,03,03,43,12.70
2013,07,03,03,45,12.70
2013,07,03,03,46,12.70
2013,07,03,03,47,12.70
2013,07,03,03,48,12.70
2013,07,03,03,50,12.70
2013,07,03,03,51,12.70
2013,07,03,03,52,12.70
2013,07,03,03,53,12.70
2013,07,03,03,55,12.70
2013,07,03,03,56,12.70
2013,07,03,03,57,12.70
2013,07,03,03,58,12.70
2013,07,03,03,59,12.70
2013,07,03,04,00,12.70
2013,07,03,04,01,12.70
2013,07,03,04,02,12.70
2013,07,03,04,03,12.70
2013,07,03,04,05,12.70
2013,07,03,04,06,12.70
2013,07,03,04,07,12.70
2013,07,03,04,08,12.70
2013,07,03,04,10,12.70
2013,07,03,04,11,12.70
2013,07,03,04,12,12.70
2013,07,03,04,13,12.60
2013,07,03,04,14,12.60
2013,07,03,04,16,12.60
2013,07,03,04,17,12.60
2013,07,03,04,18,12.60
2013,07,03,04,19,12.60
2013,07,03,04,20,12.60
2013,07,03,04,22,12.60
2013,07,03,04,23,12.60
2013,07,03,04,24,12.60
2013,07,03,04,26,12.60
2013,07,03,04,27,12.60
2013,07,03,04,28,12.60
2013,07,03,04,30,12.60
2013,07,03,04,31,12.60
2013,07,03,04,32,12.50
2013,07,03,04,33,12.50
2013,07,03,04,34,12.50
2013,07,03,04,36,12.50
2013,07,03,04,37,12.50
2013,07,03,04,38,12.50
2013,07,03,04,40,12.50
2013,07,03,04,41,12.50
2013,07,03,04,42,12.40
2013,07,03,04,43,12.40
2013,07,03,04,44,12.40
2013,07,03,04,46,12.40
2013,07,03,04,47,12.40
2013,07,03,04,48,12.40
2013,07,03,04,49,12.30
2013,07,03,04,51,12.30
2013,07,03,04,52,12.30
2013,07,03,04,53,12.30
2013,07,03,04,54,12.30
2013,07,03,04,56,12.30
2013,07,03,04,57,12.30
2013,07,03,04,58,12.30
2013,07,03,04,59,12.30
2013,07,03,05,00,12.30
2013,07,03,05,01,12.30
2013,07,03,05,02,12.30
2013,07,03,05,03,12.30
2013,07,03,05,04,12.30
2013,07,03,05,05,12.30
2013,07,03,05,06,12.30
2013,07,03,05,07,12.30
2013,07,03,05,08,12.30
2013,07,03,05,09,12.30
2013,07,03,05,10,12.30
2013,07,03,05,11,12.30
2013,07,03,05,12,12.30
2013,07,03,05,13,12.30
2013,07,03,05,14,12.30
2013,07,03,05,15,12.30
2013,07,03,05,16,12.40
2013,07,03,05,17,12.30
2013,07,03,05,18,12.30
2013,07,03,05,20,12.30
2013,07,03,05,21,12.30
2013,07,03,05,22,12.30
2013,07,03,05,23,12.30
2013,07,03,05,25,12.30
2013,07,03,05,26,12.30
2013,07,03,05,27,12.30
2013,07,03,05,28,12.30
2013,07,03,05,29,12.30
2013,07,03,05,31,12.30
2013,07,03,05,32,12.30
2013,07,03,05,33,12.30
2013,07,03,05,34,12.30
2013,07,03,05,36,12.30
2013,07,03,05,37,12.30
2013,07,03,05,38,12.30
2013,07,03,05,40,12.30
2013,07,03,05,41,12.30
2013,07,03,05,42,12.30
2013,07,03,05,43,12.30
2013,07,03,05,44,12.30
2013,07,03,05,45,12.30
2013,07,03,05,46,12.20
2013,07,03,05,47,12.20
2013,07,03,05,49,12.20
2013,07,03,05,51,12.20
2013,07,03,05,52,12.20
2013,07,03,05,53,12.20
2013,07,03,05,55,12.20
2013,07,03,05,56,12.20
2013,07,03,05,57,12.20
2013,07,03,05,58,12.20
2013,07,03,06,00,12.20
2013,07,03,06,01,12.20
2013,07,03,06,02,12.20
2013,07,03,06,03,12.20
2013,07,03,06,05,12.20
2013,07,03,06,06,12.20
2013,07,03,06,07,12.20
2013,07,03,06,09,12.20
2013,07,03,06,10,12.20
2013,07,03,06,11,12.20
2013,07,03,06,12,12.20
2013,07,03,06,14,12.20
2013,07,03,06,15,12.20
2013,07,03,06,16,12.20
2013,07,03,06,17,12.20
2013,07,03,06,18,12.20
2013,07,03,06,20,12.20
2013,07,03,06,21,12.20
2013,07,03,06,22,12.20
2013,07,03,06,23,12.20
2013,07,03,06,24,12.20
2013,07,03,06,25,12.20
2013,07,03,06,26,12.20
2013,07,03,06,28,12.20
2013,07,03,06,29,12.20
2013,07,03,06,30,12.30
2013,07,03,06,31,12.30
2013,07,03,06,32,12.30
2013,07,03,06,34,12.30
2013,07,03,06,35,12.40
2013,07,03,06,36,12.40
2013,07,03,06,37,12.50
2013,07,03,06,38,12.60
2013,07,03,06,39,12.60
2013,07,03,06,40,12.70
2013,07,03,06,41,12.70
2013,07,03,06,42,12.80
2013,07,03,06,44,12.80
2013,07,03,06,45,12.90
2013,07,03,06,46,13.00
2013,07,03,06,47,13.10
2013,07,03,06,48,13.10
2013,07,03,06,50,13.10
2013,07,03,06,51,13.20
2013,07,03,06,52,13.20
2013,07,03,06,53,13.20
2013,07,03,06,55,13.30
2013,07,03,06,56,13.40
2013,07,03,06,57,13.40
2013,07,03,06,58,13.40
2013,07,03,06,59,13.50
2013,07,03,07,01,13.60
2013,07,03,07,02,13.60
2013,07,03,07,03,13.70
2013,07,03,07,05,13.70
2013,07,03,07,06,13.80
2013,07,03,07,07,13.90
2013,07,03,07,08,14.00
2013,07,03,07,09,14.10
2013,07,03,07,11,14.10
2013,07,03,07,12,14.20
2013,07,03,07,13,14.20
2013,07,03,07,14,14.20
2013,07,03,07,15,14.30
2013,07,03,07,16,14.30
2013,07,03,07,18,14.30
2013,07,03,07,19,14.30
2013,07,03,07,20,14.30
2013,07,03,07,22,14.30
2013,07,03,07,23,14.30
2013,07,03,07,24,14.30
2013,07,03,07,26,14.30
2013,07,03,07,27,14.40
2013,07,03,07,28,14.50
2013,07,03,07,30,14.60
2013,07,03,07,31,14.70
2013,07,03,07,32,14.80
2013,07,03,07,33,14.90
2013,07,03,07,34,14.90
2013,07,03,07,35,15.10
2013,07,03,07,36,15.20
2013,07,03,07,37,15.30
2013,07,03,07,39,15.40
2013,07,03,07,40,15.60
2013,07,03,07,41,15.70
2013,07,03,07,42,15.70
2013,07,03,07,43,15.80
2013,07,03,07,44,15.90
2013,07,03,07,45,15.90
2013,07,03,07,46,16.00
2013,07,03,07,47,16.00
2013,07,03,07,48,16.10
2013,07,03,07,49,16.10
2013,07,03,07,50,16.10
2013,07,03,07,51,16.10
2013,07,03,07,53,16.10
2013,07,03,07,54,16.10
2013,07,03,07,55,16.10
2013,07,03,07,56,16.20
2013,07,03,07,57,16.20
2013,07,03,07,58,16.20
2013,07,03,07,59,16.30
2013,07,03,08,00,16.30
2013,07,03,08,01,16.40
2013,07,03,08,02,16.40
2013,07,03,08,03,16.40
2013,07,03,08,04,16.60
2013,07,03,08,05,16.60
2013,07,03,08,06,16.60
2013,07,03,08,07,16.70
2013,07,03,08,08,16.70
2013,07,03,08,09,16.80
2013,07,03,08,10,16.80
2013,07,03,08,11,16.80
2013,07,03,08,13,16.80
2013,07,03,08,14,16.80
2013,07,03,08,15,16.80
2013,07,03,08,16,16.70
2013,07,03,08,17,16.70
2013,07,03,08,18,16.70
2013,07,03,08,19,16.70
2013,07,03,08,20,16.70
2013,07,03,08,21,16.80
2013,07,03,08,22,16.80
2013,07,03,08,23,16.90
2013,07,03,08,24,16.90
2013,07,03,08,25,17.10
2013,07,03,08,26,17.20
2013,07,03,08,27,17.30
2013,07,03,08,28,17.40
2013,07,03,08,29,17.50
2013,07,03,08,30,17.60
2013,07,03,08,32,17.70
2013,07,03,08,33,17.70
2013,07,03,08,34,17.70
2013,07,03,08,35,17.60
2013,07,03,08,37,17.60
2013,07,03,08,38,17.60
2013,07,03,08,39,17.60
2013,07,03,08,40,17.60
2013,07,03,08,42,17.60
2013,07,03,08,43,17.60
2013,07,03,08,44,17.70
2013,07,03,08,45,17.70
2013,07,03,08,47,17.80
2013,07,03,08,48,17.90
2013,07,03,08,49,17.90
2013,07,03,08,50,18.10
2013,07,03,08,51,18.10
2013,07,03,08,52,18.10
2013,07,03,08,53,18.20
2013,07,03,08,54,18.20
2013,07,03,08,55,18.30
2013,07,03,08,56,18.30
2013,07,03,08,57,18.30
2013,07,03,08,58,18.20
2013,07,03,08,59,18.20
2013,07,03,09,00,18.20
2013,07,03,09,02,18.10
2013,07,03,09,03,18.10
2013,07,03,09,04,18.10
2013,07,03,09,06,18.10
2013,07,03,09,07,17.90
2013,07,03,09,08,17.90
2013,07,03,09,09,17.90
2013,07,03,09,11,17.80
2013,07,03,09,12,17.90
2013,07,03,09,13,17.90
2013,07,03,09,14,17.90
2013,07,03,09,16,17.90
2013,07,03,09,17,18.00
2013,07,03,09,18,18.10
2013,07,03,09,20,18.20
2013,07,03,09,21,18.20
2013,07,03,09,22,18.30
2013,07,03,09,23,18.40
2013,07,03,09,25,18.40
2013,07,03,09,26,18.50
2013,07,03,09,27,18.60
2013,07,03,09,28,18.60
2013,07,03,09,30,18.50
2013,07,03,09,31,18.60
2013,07,03,09,32,18.60
2013,07,03,09,33,18.60
2013,07,03,09,34,18.60
2013,07,03,09,36,18.50
2013,07,03,09,37,18.40
2013,07,03,09,38,18.40
2013,07,03,09,39,18.40
2013,07,03,09,40,18.40
2013,07,03,09,41,18.40
2013,07,03,09,43,18.40
2013,07,03,09,44,18.40
2013,07,03,09,45,18.40
2013,07,03,09,46,18.40
2013,07,03,09,48,18.40
2013,07,03,09,49,18.40
2013,07,03,09,50,18.50
2013,07,03,09,51,18.60
2013,07,03,09,53,18.50
2013,07,03,09,54,18.40
2013,07,03,09,55,18.40
2013,07,03,09,56,18.40
2013,07,03,09,58,18.50
2013,07,03,09,59,18.60
2013,07,03,10,00,18.70
2013,07,03,10,01,18.80
2013,07,03,10,03,18.80
2013,07,03,10,04,18.70
2013,07,03,10,05,18.70
2013,07,03,10,06,18.70
2013,07,03,10,08,18.70
2013,07,03,10,09,18.60
2013,07,03,10,10,18.50
2013,07,03,10,11,18.50
2013,07,03,10,12,18.50
2013,07,03,10,13,18.60
2013,07,03,10,14,18.60
2013,07,03,10,15,18.60
2013,07,03,10,16,18.70
2013,07,03,10,18,18.70
2013,07,03,10,19,18.80
2013,07,03,10,20,18.80
2013,07,03,10,21,18.80
2013,07,03,10,23,18.80
2013,07,03,10,24,18.80
2013,07,03,10,25,18.90
2013,07,03,10,27,18.90
2013,07,03,10,28,19.00
2013,07,03,10,29,19.20
2013,07,03,10,30,19.30
2013,07,03,10,31,19.40
2013,07,03,10,32,19.50
2013,07,03,10,33,19.60
2013,07,03,10,34,19.70
2013,07,03,10,35,19.70
2013,07,03,10,37,19.70
2013,07,03,10,38,19.80
2013,07,03,10,39,19.80
2013,07,03,10,40,19.70
2013,07,03,10,41,19.70
2013,07,03,10,43,19.60
2013,07,03,10,44,19.70
2013,07,03,10,45,19.70
2013,07,03,10,46,19.80
2013,07,03,10,47,19.80
2013,07,03,10,48,19.90
2013,07,03,10,49,19.90
2013,07,03,10,50,19.90
2013,07,03,10,52,20.10
2013,07,03,10,53,20.20
2013,07,03,10,54,20.20
2013,07,03,10,55,20.20
2013,07,03,10,57,20.20
2013,07,03,10,58,20.10
2013,07,03,10,59,20.10
2013,07,03,11,00,20.20
2013,07,03,11,02,20.30
2013,07,03,11,03,20.30
2013,07,03,11,04,20.20
2013,07,03,11,05,20.20
2013,07,03,11,07,20.20
2013,07,03,11,08,20.10
2013,07,03,11,09,20.10
2013,07,03,11,10,20.20
2013,07,03,11,11,20.20
2013,07,03,11,12,20.30
2013,07,03,11,13,20.30
2013,07,03,11,14,20.30
2013,07,03,11,15,20.30
2013,07,03,11,17,20.40
2013,07,03,11,18,20.50
2013,07,03,11,19,20.60
2013,07,03,11,21,20.70
2013,07,03,11,22,20.80
2013,07,03,11,23,20.90
2013,07,03,11,24,20.90
2013,07,03,11,26,21.00
2013,07,03,11,27,21.00
2013,07,03,11,28,21.00
2013,07,03,11,30,21.10
2013,07,03,11,31,21.20
2013,07,03,11,32,21.30
2013,07,03,11,33,21.30
2013,07,03,11,34,21.30
2013,07,03,11,35,21.30
2013,07,03,11,36,21.20
2013,07,03,11,37,21.10
2013,07,03,11,38,21.10
2013,07,03,11,39,21.10
2013,07,03,11,40,21.10
2013,07,03,11,41,21.10
2013,07,03,11,42,21.00
2013,07,03,11,44,21.00
2013,07,03,11,45,21.10
2013,07,03,11,46,21.10
2013,07,03,11,47,21.20
2013,07,03,11,48,21.20
2013,07,03,11,49,21.20
2013,07,03,11,50,21.20
2013,07,03,11,51,21.20
2013,07,03,11,52,21.20
2013,07,03,11,54,21.20
2013,07,03,11,55,21.20
2013,07,03,11,56,21.20
2013,07,03,11,57,21.20
2013,07,03,11,58,21.30
2013,07,03,11,59,21.30
2013,07,03,12,01,21.30
2013,07,03,12,02,21.30
2013,07,03,12,03,21.30
2013,07,03,12,04,21.40
2013,07,03,12,06,21.50
2013,07,03,12,07,21.70
2013,07,03,12,08,21.70
2013,07,03,12,09,21.80
2013,07,03,12,10,21.80
2013,07,03,12,11,21.80
2013,07,03,12,12,21.80
2013,07,03,12,13,21.90
2013,07,03,12,14,21.90
2013,07,03,12,16,21.90
2013,07,03,12,17,21.90
2013,07,03,12,18,22.00
2013,07,03,12,20,22.10
2013,07,03,12,21,22.10
2013,07,03,12,22,22.20
2013,07,03,12,23,22.20
2013,07,03,12,24,22.30
2013,07,03,12,26,22.30
2013,07,03,12,27,22.40
2013,07,03,12,28,22.40
2013,07,03,12,29,22.50
2013,07,03,12,31,22.50
2013,07,03,12,32,22.50
2013,07,03,12,33,22.50
2013,07,03,12,34,22.40
2013,07,03,12,36,22.30
2013,07,03,12,37,22.10
2013,07,03,12,38,22.00
2013,07,03,12,39,22.00
2013,07,03,12,41,22.00
2013,07,03,12,42,21.80
2013,07,03,12,43,21.80
2013,07,03,12,44,21.90
2013,07,03,12,46,21.90
2013,07,03,12,47,21.90
2013,07,03,12,48,22.10
2013,07,03,12,49,22.20
2013,07,03,12,51,22.20
2013,07,03,12,52,22.10
2013,07,03,12,53,22.00
2013,07,03,12,54,22.00
2013,07,03,12,56,22.10
2013,07,03,12,57,22.10
2013,07,03,12,58,22.20
2013,07,03,13,00,22.30
2013,07,03,13,01,22.30
2013,07,03,13,02,22.50
2013,07,03,13,04,22.60
2013,07,03,13,05,22.80
2013,07,03,13,06,22.90
2013,07,03,13,07,22.90
2013,07,03,13,10,22.80
2013,07,03,13,11,22.80
2013,07,03,13,12,22.80
2013,07,03,13,14,22.80
2013,07,03,13,15,22.80
2013,07,03,13,16,22.90
2013,07,03,13,17,22.90
2013,07,03,13,18,22.90
2013,07,03,13,19,23.00
2013,07,03,13,20,23.10
2013,07,03,13,21,23.10
2013,07,03,13,22,23.10
2013,07,03,13,24,23.00
2013,07,03,13,25,22.90
2013,07,03,13,26,22.90
2013,07,03,13,27,22.90
2013,07,03,13,28,23.10
2013,07,03,13,29,23.20
2013,07,03,13,30,23.20
2013,07,03,13,31,23.20
2013,07,03,13,32,23.30
2013,07,03,13,33,23.30
2013,07,03,13,34,23.30
2013,07,03,13,35,23.20
2013,07,03,13,36,23.20
2013,07,03,13,37,23.00
2013,07,03,13,38,22.90
2013,07,03,13,39,22.90
2013,07,03,13,41,22.90
2013,07,03,13,42,22.70
2013,07,03,13,43,22.60
2013,07,03,13,44,22.40
2013,07,03,13,46,22.30
2013,07,03,13,47,22.30
2013,07,03,13,48,22.30
2013,07,03,13,49,22.30
2013,07,03,13,51,22.40
2013,07,03,13,52,22.70
2013,07,03,13,53,22.70
2013,07,03,13,54,22.80
2013,07,03,13,55,22.80
2013,07,03,13,56,22.80
2013,07,03,13,57,22.80
2013,07,03,13,58,22.90
2013,07,03,13,59,22.90
2013,07,03,14,01,22.90
2013,07,03,14,02,22.80
2013,07,03,14,03,22.80
2013,07,03,14,04,22.70
2013,07,03,14,06,22.60
2013,07,03,14,07,22.60
2013,07,03,14,08,22.60
2013,07,03,14,10,22.60
2013,07,03,14,11,22.70
2013,07,03,14,12,22.70
2013,07,03,14,13,22.80
2013,07,03,14,14,22.80
2013,07,03,14,16,22.80
2013,07,03,14,17,22.80
2013,07,03,14,18,22.80
2013,07,03,14,19,22.80
2013,07,03,14,21,22.90
2013,07,03,14,22,23.10
2013,07,03,14,23,23.10
2013,07,03,14,24,23.00
2013,07,03,14,25,23.00
2013,07,03,14,26,23.00
2013,07,03,14,27,22.90
2013,07,03,14,28,22.90
2013,07,03,14,29,22.90
2013,07,03,14,31,23.00
2013,07,03,14,32,23.10
2013,07,03,14,33,23.10
2013,07,03,14,34,23.00
2013,07,03,14,35,22.90
2013,07,03,14,36,22.90
2013,07,03,14,37,22.90
2013,07,03,14,39,22.90
2013,07,03,14,40,22.90
2013,07,03,14,41,22.90
2013,07,03,14,42,22.90
2013,07,03,14,43,23.10
2013,07,03,14,44,23.10
2013,07,03,14,45,23.20
2013,07,03,14,46,23.20
2013,07,03,14,47,23.10
2013,07,03,14,48,23.10
2013,07,03,14,49,23.10
2013,07,03,14,50,23.10
2013,07,03,14,51,23.20
2013,07,03,14,52,23.20
2013,07,03,14,54,23.20
2013,07,03,14,55,23.20
2013,07,03,14,56,23.20
2013,07,03,14,57,23.10
2013,07,03,14,59,23.10
2013,07,03,15,00,23.00
2013,07,03,15,01,23.00
2013,07,03,15,03,23.10
2013,07,03,15,04,23.10
2013,07,03,15,05,23.20
2013,07,03,15,06,23.20
2013,07,03,15,07,23.20
2013,07,03,15,08,23.20
2013,07,03,15,09,23.30
2013,07,03,15,10,23.30
2013,07,03,15,11,23.30
2013,07,03,15,12,23.30
2013,07,03,15,13,23.30
2013,07,03,15,14,23.20
2013,07,03,15,15,23.10
2013,07,03,15,16,23.10
2013,07,03,15,17,23.10
2013,07,03,15,18,23.20
2013,07,03,15,19,23.20
2013,07,03,15,20,23.20
2013,07,03,15,21,23.30
2013,07,03,15,23,23.30
2013,07,03,15,24,23.60
2013,07,03,15,25,23.70
2013,07,03,15,26,23.70
2013,07,03,15,27,23.80
2013,07,03,15,28,23.80
2013,07,03,15,29,23.80
2013,07,03,15,30,23.70
2013,07,03,15,31,23.50
2013,07,03,15,33,23.40
2013,07,03,15,34,23.30
2013,07,03,15,35,23.30
2013,07,03,15,36,23.30
2013,07,03,15,37,23.30
2013,07,03,15,38,23.30
2013,07,03,15,39,23.30
2013,07,03,15,40,23.30
2013,07,03,15,41,23.30
2013,07,03,15,43,23.40
2013,07,03,15,44,23.30
2013,07,03,15,45,23.20
2013,07,03,15,46,23.00
2013,07,03,15,47,22.90
2013,07,03,15,48,22.90
2013,07,03,15,49,22.90
2013,07,03,15,50,22.90
2013,07,03,15,51,22.90
2013,07,03,15,53,23.10
2013,07,03,15,54,23.10
2013,07,03,15,55,23.10
2013,07,03,15,57,23.10
2013,07,03,15,58,23.00
2013,07,03,15,59,22.90
2013,07,03,16,00,22.80
2013,07,03,16,01,22.80
2013,07,03,16,02,22.60
2013,07,03,16,03,22.60
2013,07,03,16,04,22.40
2013,07,03,16,05,22.40
2013,07,03,16,06,22.40
2013,07,03,16,07,22.40
2013,07,03,16,08,22.40
2013,07,03,16,09,22.40
2013,07,03,16,10,22.40
2013,07,03,16,11,22.40
2013,07,03,16,12,22.40
2013,07,03,16,13,22.40
2013,07,03,16,14,22.40
2013,07,03,16,15,22.40
2013,07,03,16,16,22.40
2013,07,03,16,17,22.50
2013,07,03,16,18,22.60
2013,07,03,16,19,22.60
2013,07,03,16,20,22.60
2013,07,03,16,22,22.60
2013,07,03,16,23,22.60
2013,07,03,16,24,22.60
2013,07,03,16,25,22.60
2013,07,03,16,27,22.60
2013,07,03,16,28,22.50
2013,07,03,16,29,22.40
2013,07,03,16,30,22.40
2013,07,03,16,32,22.30
2013,07,03,16,33,22.40
2013,07,03,16,34,22.40
2013,07,03,16,35,22.40
2013,07,03,16,36,22.40
2013,07,03,16,37,22.50
2013,07,03,16,38,22.60
2013,07,03,16,39,22.60
2013,07,03,16,41,22.60
2013,07,03,16,42,22.60
2013,07,03,16,44,22.40
2013,07,03,16,45,22.40
2013,07,03,16,46,22.30
2013,07,03,16,47,22.30
2013,07,03,16,49,22.20
2013,07,03,16,50,22.10
2013,07,03,16,51,21.90
2013,07,03,16,52,21.90
2013,07,03,16,53,21.90
2013,07,03,16,55,21.80
2013,07,03,16,56,21.80
2013,07,03,16,57,21.70
2013,07,03,16,58,21.70
2013,07,03,16,59,21.70
2013,07,03,17,01,21.70
2013,07,03,17,02,21.70
2013,07,03,17,03,21.80
2013,07,03,17,04,21.90
2013,07,03,17,06,22.10
2013,07,03,17,07,22.10
2013,07,03,17,08,22.00
2013,07,03,17,09,22.00
2013,07,03,17,11,22.00
2013,07,03,17,12,22.10
2013,07,03,17,13,22.10
2013,07,03,17,14,22.10
2013,07,03,17,16,22.10
2013,07,03,17,17,22.10
2013,07,03,17,18,22.20
2013,07,03,17,19,22.30
2013,07,03,17,21,22.40
2013,07,03,17,22,22.70
2013,07,03,17,23,22.70
2013,07,03,17,24,22.80
2013,07,03,17,26,22.80
2013,07,03,17,27,22.80
2013,07,03,17,28,22.90
2013,07,03,17,29,23.00
2013,07,03,17,31,23.10
2013,07,03,17,32,23.20
2013,07,03,17,33,23.10
2013,07,03,17,34,23.10
2013,07,03,17,35,23.10
2013,07,03,17,36,23.20
2013,07,03,17,37,23.20
2013,07,03,17,38,23.20
2013,07,03,17,39,23.20
2013,07,03,17,40,23.20
2013,07,03,17,41,23.30
2013,07,03,17,42,23.40
2013,07,03,17,44,23.40
2013,07,03,17,45,23.50
2013,07,03,17,46,23.60
2013,07,03,17,47,23.60
2013,07,03,17,49,23.50
2013,07,03,17,50,23.40
2013,07,03,17,51,23.30
2013,07,03,17,52,23.40
2013,07,03,17,53,23.40
2013,07,03,17,54,23.40
2013,07,03,17,55,23.40
2013,07,03,17,56,23.40
2013,07,03,17,58,23.40
2013,07,03,17,59,23.40
2013,07,03,18,00,23.40
2013,07,03,18,01,23.30
2013,07,03,18,03,23.30
2013,07,03,18,04,23.20
2013,07,03,18,05,23.20
2013,07,03,18,06,23.20
2013,07,03,18,08,23.30
2013,07,03,18,09,23.30
2013,07,03,18,10,23.30
2013,07,03,18,11,23.30
2013,07,03,18,12,23.30
2013,07,03,18,14,23.30
2013,07,03,18,15,23.30
2013,07,03,18,16,23.30
2013,07,03,18,17,23.40
2013,07,03,18,19,23.30
2013,07,03,18,20,23.30
2013,07,03,18,21,23.20
2013,07,03,18,22,23.20
2013,07,03,18,24,23.10
2013,07,03,18,25,23.00
2013,07,03,18,26,23.00
2013,07,03,18,27,23.00
2013,07,03,18,29,22.90
2013,07,03,18,30,22.80
2013,07,03,18,31,22.70
2013,07,03,18,32,22.60
2013,07,03,18,33,22.60
2013,07,03,18,35,22.60
2013,07,03,18,36,22.60
2013,07,03,18,37,22.60
2013,07,03,18,38,22.60
2013,07,03,18,40,22.60
2013,07,03,18,41,22.60
2013,07,03,18,42,22.60
2013,07,03,18,43,22.60
2013,07,03,18,44,22.60
2013,07,03,18,45,22.60
2013,07,03,18,46,22.50
2013,07,03,18,47,22.40
2013,07,03,18,48,22.40
2013,07,03,18,49,22.40
2013,07,03,18,50,22.30
2013,07,03,18,51,22.20
2013,07,03,18,52,22.20
2013,07,03,18,53,22.10
2013,07,03,18,54,22.10
2013,07,03,18,55,22.00
2013,07,03,18,56,22.00
2013,07,03,18,57,22.00
2013,07,03,18,59,22.00
2013,07,03,19,00,21.80
2013,07,03,19,01,21.70
2013,07,03,19,02,21.60
2013,07,03,19,03,21.60
2013,07,03,19,04,21.50
2013,07,03,19,05,21.40
2013,07,03,19,06,21.30
2013,07,03,19,07,21.30
2013,07,03,19,08,21.20
2013,07,03,19,09,21.10
2013,07,03,19,10,21.10
2013,07,03,19,11,21.00
2013,07,03,19,12,20.90
2013,07,03,19,13,20.80
2013,07,03,19,14,20.70
2013,07,03,19,15,20.60
2013,07,03,19,16,20.50
2013,07,03,19,17,20.40
2013,07,03,19,18,20.40
2013,07,03,19,19,20.30
2013,07,03,19,20,20.30
2013,07,03,19,21,20.20
2013,07,03,19,22,20.20
2013,07,03,19,23,20.10
2013,07,03,19,24,20.10
2013,07,03,19,25,19.90
2013,07,03,19,27,19.90
2013,07,03,19,28,19.80
2013,07,03,19,29,19.80
2013,07,03,19,30,19.70
2013,07,03,19,31,19.70
2013,07,03,19,32,19.60
2013,07,03,19,33,19.60
2013,07,03,19,35,19.50
2013,07,03,19,36,19.40
2013,07,03,19,37,19.40
2013,07,03,19,38,19.30
2013,07,03,19,40,19.30
2013,07,03,19,41,19.20
2013,07,03,19,42,19.20
2013,07,03,19,43,19.10
2013,07,03,19,44,19.10
2013,07,03,19,46,19.00
2013,07,03,19,47,18.90
2013,07,03,19,48,18.90
2013,07,03,19,50,18.80
2013,07,03,19,51,18.80
2013,07,03,19,52,18.70
2013,07,03,19,53,18.60
2013,07,03,19,54,18.60
2013,07,03,19,55,18.60
2013,07,03,19,56,18.50
2013,07,03,19,57,18.50
2013,07,03,19,58,18.40
2013,07,03,19,59,18.30
2013,07,03,20,01,18.30
2013,07,03,20,02,18.30
2013,07,03,20,03,18.20
2013,07,03,20,04,18.20
2013,07,03,20,06,18.10
2013,07,03,20,07,18.00